Location: Newark
(20.0000°S, 47.0000°E)
Time: 03:54:14
(UTC+00:00)

N. Korean satellite - Visible Passes

Search period start: 25 June 2019 00:00
Search period end: 05 July 2019 00:00
Orbit: 455 x 510 km, 97.2° (Epoch: 24 June)

Date Brightness Start Highest point End Pass type
(mag) Time Alt. Az. Time Alt. Az. Time Alt. Az.
25 Jun 7.3 02:47:12 10° NNW 02:50:31 34° W 02:53:55 10° SSW visible
26 Jun 6.6 02:21:50 10° NNE 02:25:28 89° E 02:29:12 10° S visible
26 Jun 9.5 15:34:06 10° SW 15:36:09 15° WSW 15:38:11 10° WNW visible
27 Jun 8.2 01:57:11 10° NE 02:00:31 34° ESE 02:03:55 10° S visible
27 Jun 8.3 15:07:57 10° S 15:11:16 34° WSW 15:14:30 10° NW visible
28 Jun 9.6 01:33:30 10° ENE 01:35:37 15° ESE 01:37:46 10° SE visible
28 Jun 6.6 14:42:40 10° S 14:46:18 89° E 14:49:49 10° N visible
29 Jun 7.0 02:40:11 10° N 02:43:41 44° W 02:47:16 10° SSW visible
30 Jun 6.9 02:15:01 10° NNE 02:18:39 69° ESE 02:22:23 10° S visible
30 Jun 9.4 15:26:52 10° SSW 15:29:21 18° WSW 15:31:48 10° WNW visible
01 Jul 8.7 01:50:33 10° NE 01:53:42 27° ESE 01:56:55 10° SSE visible
01 Jul 7.8 15:01:00 10° S 15:04:26 43° WSW 15:07:45 10° NNW visible
02 Jul 9.7 01:27:20 10° E 01:28:49 12° ESE 01:30:19 10° SE visible
02 Jul 7.9 02:58:57 10° NNW 03:01:54 23° W 03:04:55 10° SW visible
03 Jul 6.7 02:33:12 10° N 02:36:50 57° W 02:40:31 10° SSW visible
04 Jul 7.4 02:08:12 10° NNE 02:11:49 53° ESE 02:15:29 10° S visible
04 Jul 9.0 15:19:42 10° SSW 15:22:29 22° WSW 15:25:15 10° NW visible
